Regional Weather Roundup
Issued by NWS

Home | Current Version | Previous Version | Graphics & Text | Print | Product List | Glossary On
Versions: 1 2 3 4 5 6 7 8 9 10 11 12 13 14 15 16 17 18 19 20 21 22 23 24 25 26 27 28 29 30 31 32 33 34 35 36 37 38 39 40 41 42 43 44 45 46 47 48 49 50
000
ASUS43 KTOP 220508
RWRKS

WEATHER ROUNDUP FOR KANSAS
NATIONAL WEATHER SERVICE GOODLAND KS
1200 AM CDT TUE MAY 22 2018

NOTE:  "FAIR" INDICATES FEW OR NO CLOUDS BELOW 12,000 FEET WITH NO
SIGNIFICANT WEATHER AND/OR OBSTRUCTIONS TO VISIBILITY.

KSZ001>006-013>018-027>032-041>047-220600-
NORTHWEST KANSAS

CITY           SKY/WX    TMP DP  RH WIND       PRES   REMARKS
GOODLAND       PTCLDY    61  54  77 S12       29.92F
HAYS           PTCLDY    68  60  75 S15       29.95F
HILL CITY      CLOUDY    68  60  75 SE10      29.94F
RUSSELL        CLOUDY    68  62  81 SE15      29.95F
$$

KSZ061>065-074>080-084>089-220600-
SOUTHWEST KANSAS

CITY           SKY/WX    TMP DP  RH WIND       PRES   REMARKS
DODGE CITY     CLOUDY    69  57  65 S13       29.98F
ELKHART        MOCLDY    68  58  69 S13       30.01R
GARDEN CITY    PTCLDY    66  58  75 S12       29.96F
GREAT BEND     CLOUDY    67  61  81 SE16      29.97F
LIBERAL        CLOUDY    68  58  70 S13       30.00R
PRATT          CLOUDY    68  57  68 SE8       30.00S
$$

KSZ066>073-081>083-090>101-220600-
SOUTHEAST KANSAS

CITY           SKY/WX    TMP DP  RH WIND       PRES   REMARKS
CHANUTE        CLEAR     63  61  93 CALM      30.03S
COFFEYVILLE    CLEAR     66  64  93 CALM      30.01S
HUTCHINSON     CLOUDY    67  61  81 SE8       29.99F
MEDICINE LODGE   N/A     68  60  75 SE6       29.99S
NEWTON         CLOUDY    65  60  84 SE9       30.02F
PARSONS        CLEAR     63  63 100 CALM      30.03F
WICHITA INTL   CLOUDY    69  62  78 SE9       30.00S
WICHITA JABRA  CLOUDY    67  61  81 SE8       30.01S
WICHITA MCCONL CLOUDY    68  60  74 SE9       30.00F
WINFIELD       CLEAR     67  62  84 SE6       30.02F
$$

KSZ007>012-019>026-033>040-048>060-102>105-220600-
NORTHEAST KANSAS

CITY           SKY/WX    TMP DP  RH WIND       PRES   REMARKS
CONCORDIA      CLOUDY    66  58  75 SE10      29.97F
EMPORIA        CLEAR     64  61  90 SE6       30.02F
LAWRENCE       CLEAR     61  60  97 E3        30.03S
MANHATTAN      CLOUDY    66  60  81 S3        30.00F
MARYSVILLE     CLOUDY    66  59  77 SE6       30.00F
OLATHE IND     CLEAR     63  59  87 SE5       30.05R
OLATHE EXE     CLEAR     63  59  87 SE3       30.04S
SALINA         CLOUDY    68  60  75 SE7       29.98F
TOPEKA BILLARD CLEAR     65  62  90 E3        30.02S
TOPEKA FORBES  CLEAR     63  62  97 E5        30.02S
$$



USA.gov is the U.S. government's official web portal to all federal, state and local government web resources and services.